Terug naar catalogus

STARLINK-4462

ActiefCommunicatieVLEO
NORAD 53781·PAYLOAD·🇺🇸 United States

Gelanceerd Sep 11, 2022 vanaf Cape Canaveral Space Force Station

Loading…

Volgende Passages (komende 24 uur)

TLE

VersSource: CelesTrak SupGP

Epoch: Sep 15, 2026, 02:45 UTC

1 53781C 22111J   26258.11506944  .00380640  00000+0  13063-1 0  2586
2 53781  53.1591 140.9896 0001328  83.6748 276.1122 15.29414892    14

Volg STARLINK-4462 in realtime met AllMySat

Download on the App Store